| time (UTC) | temp F | wind direction | speed MPH | gust MPH | rain 1hr in | rain 24hr in | rain mn in | humidity % | barometer mb |
| 20260510123154 | 73 | 254 | 4.0 | 10.0 | 0.00 | 0.10 | 0.00 | 71 | 1015.1 |
| 20260510122648 | 73 | 301 | 4.0 | 10.0 | 0.00 | 0.10 | 0.00 | 72 | 1015.1 |
| 20260510122157 | 73 | 312 | 4.0 | 13.0 | 0.00 | 0.10 | 0.00 | 72 | 1015.1 |
| 20260510121648 | 73 | 286 | 1.0 | 12.0 | 0.00 | 0.10 | 0.00 | 71 | 1015.1 |
| 20260510121152 | 73 | 302 | 3.0 | 13.0 | 0.00 | 0.10 | 0.00 | 72 | 1015.1 |
| 20260510120649 | 73 | 281 | 3.0 | 10.0 | 0.00 | 0.10 | 0.00 | 73 | 1015.0 |
| 20260510120152 | 74 | 279 | 11.0 | 14.0 | 0.00 | 0.10 | 0.00 | 71 | 1015.0 |
| 20260510115651 | 74 | 280 | 0.0 | 15.0 | 0.00 | 0.10 | 0.00 | 71 | 1014.9 |
| 20260510115148 | 74 | 279 | 4.0 | 14.0 | 0.00 | 0.10 | 0.00 | 72 | 1014.8 |
| 20260510114654 | 74 | 271 | 3.0 | 12.0 | 0.00 | 0.10 | 0.00 | 72 | 1014.7 |
| 20260510114154 | 74 | 98 | 1.0 | 11.0 | 0.00 | 0.10 | 0.00 | 71 | 1014.7 |
| 20260510113655 | 75 | 174 | 7.0 | 13.0 | 0.00 | 0.10 | 0.00 | 71 | 1014.7 |
| 20260510113149 | 74 | 207 | 5.0 | 10.0 | 0.00 | 0.10 | 0.00 | 71 | 1014.5 |
| 20260510112658 | 74 | 229 | 3.0 | 10.0 | 0.00 | 0.10 | 0.00 | 72 | 1014.6 |
| 20260510112152 | 74 | 277 | 1.0 | 17.0 | 0.00 | 0.10 | 0.00 | 72 | 1014.5 |
| 20260510111648 | 74 | 230 | 9.0 | 16.0 | 0.00 | 0.10 | 0.00 | 72 | 1014.5 |
| 20260510111158 | 74 | 281 | 11.0 | 12.0 | 0.00 | 0.10 | 0.00 | 72 | 1014.4 |
| 20260510110652 | 74 | 277 | 5.0 | 14.0 | 0.00 | 0.10 | 0.00 | 72 | 1014.4 |
| 20260510110152 | 74 | 268 | 6.0 | 18.0 | 0.00 | 0.10 | 0.00 | 71 | 1014.3 |
| 20260510105655 | 74 | 281 | 8.0 | 21.0 | 0.00 | 0.10 | 0.00 | 70 | 1014.3 |
| 20260510105151 | 75 | 262 | 6.0 | 13.0 | 0.00 | 0.10 | 0.00 | 70 | 1014.2 |
| 20260510104649 | 75 | 246 | 4.0 | 11.0 | 0.00 | 0.10 | 0.00 | 70 | 1014.1 |
| 20260510104148 | 75 | 265 | 8.0 | 17.0 | 0.00 | 0.10 | 0.00 | 69 | 1014.2 |
| 20260510103655 | 76 | 196 | 6.0 | 18.0 | 0.00 | 0.10 | 0.00 | 66 | 1014.2 |
| 20260510103152 | 76 | 311 | 5.0 | 13.0 | 0.00 | 0.10 | 0.00 | 66 | 1014.0 |
| 20260510102655 | 77 | 281 | 6.0 | 14.0 | 0.00 | 0.10 | 0.00 | 65 | 1013.8 |
| 20260510102149 | 77 | 288 | 5.0 | 15.0 | 0.00 | 0.10 | 0.00 | 61 | 1013.8 |
| 20260510101649 | 79 | 279 | 8.0 | 13.0 | 0.00 | 0.10 | 0.00 | 59 | 1013.8 |
| 20260510101152 | 80 | 275 | 10.0 | 20.0 | 0.00 | 0.10 | 0.00 | 55 | 1013.6 |
| 20260510100658 | 80 | 217 | 8.0 | 13.0 | 0.00 | 0.10 | 0.00 | 50 | 1013.4 |
| 20260510100149 | 80 | 223 | 9.0 | 14.0 | 0.00 | 0.10 | 0.00 | 51 | 1013.2 |
| 20260510095649 | 81 | 256 | 10.0 | 15.0 | 0.00 | 0.10 | 0.00 | 52 | 1013.1 |
| 20260510095158 | 81 | 247 | 3.0 | 14.0 | 0.00 | 0.10 | 0.00 | 51 | 1012.9 |
| 20260510094652 | 80 | 284 | 3.0 | 9.0 | 0.00 | 0.10 | 0.00 | 51 | 1012.9 |
| 20260510094152 | 80 | 177 | 5.0 | 10.0 | 0.00 | 0.10 | 0.00 | 51 | 1012.8 |
| 20260510093655 | 80 | 183 | 8.0 | 13.0 | 0.00 | 0.10 | 0.00 | 51 | 1012.7 |
| 20260510093152 | 80 | 182 | 2.0 | 9.0 | 0.00 | 0.10 | 0.00 | 51 | 1012.8 |
| 20260510092649 | 80 | 204 | 7.0 | 7.0 | 0.00 | 0.10 | 0.00 | 52 | 1012.8 |
| 20260510092158 | 80 | 153 | 3.0 | 4.0 | 0.00 | 0.10 | 0.00 | 53 | 1012.8 |
| 20260510091650 | 79 | 148 | 0.0 | 6.0 | 0.00 | 0.10 | 0.00 | 54 | 1012.8 |
| 20260510091155 | 79 | 178 | 4.0 | 9.0 | 0.00 | 0.10 | 0.00 | 54 | 1012.7 |
| 20260510090655 | 79 | 144 | 6.0 | 10.0 | 0.00 | 0.10 | 0.00 | 54 | 1012.7 |
| 20260510090149 | 78 | 189 | 7.0 | 10.0 | 0.00 | 0.10 | 0.00 | 55 | 1012.7 |
| 20260510085649 | 77 | 230 | 1.0 | 8.0 | 0.00 | 0.10 | 0.00 | 56 | 1012.8 |
| 20260510085152 | 77 | 214 | 0.0 | 10.0 | 0.00 | 0.10 | 0.00 | 58 | 1012.8 |
| 20260510084652 | 76 | 205 | 7.0 | 10.0 | 0.00 | 0.10 | 0.00 | 59 | 1012.8 |
| 20260510084149 | 76 | 226 | 5.0 | 13.0 | 0.00 | 0.10 | 0.00 | 59 | 1012.7 |
| 20260510083652 | 76 | 238 | 5.0 | 9.0 | 0.00 | 0.10 | 0.00 | 59 | 1012.7 |
| 20260510083152 | 76 | 158 | 1.0 | 9.0 | 0.00 | 0.10 | 0.00 | 60 | 1012.8 |
| 20260510082652 | 76 | 179 | 4.0 | 13.0 | 0.00 | 0.10 | 0.00 | 59 | 1012.8 |
| 20260510082149 | 77 | 231 | 6.0 | 9.0 | 0.00 | 0.10 | 0.00 | 59 | 1012.8 |
| 20260510081652 | 77 | 187 | 7.0 | 13.0 | 0.00 | 0.10 | 0.00 | 56 | 1012.8 |
| 20260510081152 | 78 | 189 | 4.0 | 8.0 | 0.00 | 0.10 | 0.00 | 54 | 1012.7 |
| 20260510080652 | 78 | 161 | 5.0 | 11.0 | 0.00 | 0.10 | 0.00 | 55 | 1012.7 |
| 20260510080149 | 78 | 162 | 7.0 | 7.0 | 0.00 | 0.10 | 0.00 | 57 | 1012.7 |
| 20260510075649 | 78 | 127 | 2.0 | 7.0 | 0.00 | 0.10 | 0.00 | 56 | 1012.6 |
| 20260510075152 | 78 | 74 | 2.0 | 4.0 | 0.00 | 0.10 | 0.00 | 58 | 1012.6 |
| 20260510074652 | 77 | 192 | 4.0 | 6.0 | 0.00 | 0.10 | 0.00 | 58 | 1012.4 |
| 20260510074152 | 77 | 90 | 0.0 | 8.0 | 0.00 | 0.10 | 0.00 | 60 | 1012.4 |
| 20260510073652 | 76 | 130 | 1.0 | 6.0 | 0.00 | 0.10 | 0.00 | 62 | 1012.3 |
| 20260510073155 | 76 | 161 | 0.0 | 7.0 | 0.00 | 0.10 | 0.00 | 62 | 1012.4 |
| 20260510072649 | 75 | 178 | 1.0 | 8.0 | 0.00 | 0.10 | 0.00 | 64 | 1012.5 |
| 20260510072150 | 74 | 160 | 7.0 | 10.0 | 0.00 | 0.10 | 0.00 | 63 | 1012.5 |
| 20260510071655 | 74 | 177 | 7.0 | 9.0 | 0.00 | 0.10 | 0.00 | 64 | 1012.5 |
| 20260510071156 | 74 | 197 | 7.0 | 9.0 | 0.00 | 0.10 | 0.00 | 65 | 1012.5 |
| 20260510070652 | 74 | 215 | 4.0 | 8.0 | 0.00 | 0.10 | 0.00 | 66 | 1012.6 |
| 20260510070156 | 73 | 191 | 3.0 | 6.0 | 0.00 | 0.10 | 0.00 | 72 | 1012.6 |
| 20260510065649 | 71 | 178 | 4.0 | 8.0 | 0.00 | 0.10 | 0.00 | 77 | 1012.6 |
| 20260510065149 | 70 | 194 | 2.0 | 4.0 | 0.00 | 0.10 | 0.00 | 80 | 1012.8 |
| 20260510064652 | 70 | 81 | 0.0 | 3.0 | 0.00 | 0.10 | 0.00 | 81 | 1012.8 |
| 20260510064152 | 69 | 242 | 2.0 | 3.0 | 0.00 | 0.10 | 0.00 | 83 | 1012.8 |
| 20260510063652 | 69 | 187 | 2.0 | 5.0 | 0.00 | 0.10 | 0.00 | 83 | 1013.0 |
| 20260510063152 | 68 | 159 | 2.0 | 2.0 | 0.00 | 0.10 | 0.00 | 84 | 1013.0 |
| 20260510062649 | 68 | 139 | 3.0 | 4.0 | 0.00 | 0.10 | 0.00 | 84 | 1013.2 |
| 20260510062150 | 67 | 162 | 0.0 | 0.0 | 0.00 | 0.10 | 0.00 | 84 | 1013.4 |
| 20260510061655 | 67 | 162 | 0.0 | 1.0 | 0.00 | 0.10 | 0.00 | 84 | 1013.6 |
| 20260510061150 | 67 | 162 | 0.0 | 2.0 | 0.00 | 0.10 | 0.00 | 85 | 1013.6 |
| 20260510060649 | 67 | 162 | 1.0 | 4.0 | 0.00 | 0.10 | 0.00 | 85 | 1013.7 |
| 20260510060152 | 67 | 178 | 2.0 | 4.0 | 0.00 | 0.10 | 0.00 | 85 | 1013.5 |
| 20260510055649 | 66 | 121 | 4.0 | 4.0 | 0.00 | 0.10 | 0.00 | 85 | 1013.5 |
| 20260510055149 | 66 | 154 | 1.0 | 6.0 | 0.00 | 0.10 | 0.00 | 85 | 1013.8 |
| 20260510054652 | 67 | 109 | 1.0 | 4.0 | 0.00 | 0.10 | 0.00 | 85 | 1013.8 |
| 20260510054155 | 67 | 128 | 3.0 | 6.0 | 0.00 | 0.10 | 0.00 | 85 | 1013.9 |
| 20260510053652 | 67 | 109 | 2.0 | 6.0 | 0.00 | 0.10 | 0.00 | 84 | 1014.1 |
| 20260510053155 | 67 | 148 | 2.0 | 5.0 | 0.00 | 0.10 | 0.00 | 84 | 1014.3 |
| 20260510052652 | 67 | 336 | 2.0 | 3.0 | 0.00 | 0.10 | 0.00 | 83 | 1014.9 |
| 20260510052149 | 67 | 196 | 0.0 | 3.0 | 0.00 | 0.10 | 0.00 | 83 | 1014.3 |
| 20260510051649 | 66 | 196 | 0.0 | 4.0 | 0.00 | 0.10 | 0.00 | 83 | 1014.1 |
| 20260510051149 | 67 | 169 | 0.0 | 6.0 | 0.00 | 0.10 | 0.00 | 83 | 1014.1 |
| 20260510050649 | 67 | 175 | 5.0 | 11.0 | 0.00 | 0.09 | 0.00 | 84 | 1013.7 |
| 20260510050153 | 66 | 167 | 3.0 | 16.0 | 0.00 | 0.09 | 0.00 | 85 | 1013.9 |
| 20260510045655 | 66 | 154 | 5.0 | 12.0 | 0.00 | 0.09 | 0.00 | 88 | 1014.3 |
| 20260510045149 | 66 | 258 | 7.0 | 9.0 | 0.00 | 0.09 | 0.00 | 90 | 1014.2 |
| 20260510044649 | 67 | 297 | 3.0 | 6.0 | 0.00 | 0.09 | 0.00 | 91 | 1013.6 |
| 20260510044152 | 67 | 281 | 3.0 | 5.0 | 0.01 | 0.09 | 0.00 | 92 | 1013.0 |
| 20260510043653 | 66 | 175 | 0.0 | 0.0 | 0.01 | 0.09 | 0.00 | 92 | 1012.6 |
| 20260510043155 | 66 | 175 | 0.0 | 0.0 | 0.01 | 0.09 | 0.00 | 92 | 1012.5 |
| 20260510042649 | 66 | 175 | 0.0 | 4.0 | 0.01 | 0.09 | 0.00 | 92 | 1012.7 |
| 20260510042155 | 66 | 156 | 0.0 | 0.0 | 0.02 | 0.09 | 0.00 | 92 | 1012.7 |
| 20260510041649 | 66 | 156 | 0.0 | 4.0 | 0.02 | 0.09 | 0.00 | 92 | 1013.2 |
| 20260510041149 | 66 | 101 | 2.0 | 5.0 | 0.02 | 0.09 | 0.00 | 92 | 1013.3 |
| 20260510040658 | 66 | 109 | 3.0 | 8.0 | 0.02 | 0.09 | 0.00 | 92 | 1013.6 |
| 20260510040152 | 66 | 100 | 5.0 | 8.0 | 0.02 | 0.09 | 0.00 | 92 | 1014.4 |
| 20260510035649 | 66 | 76 | 5.0 | 6.0 | 0.01 | 0.08 | 0.00 | 92 | 1015.3 |
| 20260510035152 | 66 | 114 | 2.0 | 5.0 | 0.02 | 0.08 | 0.00 | 92 | 1015.5 |
| 20260510034652 | 66 | 95 | 3.0 | 10.0 | 0.03 | 0.08 | 0.00 | 92 | 1015.1 |
| 20260510034149 | 66 | 40 | 3.0 | 5.0 | 0.03 | 0.07 | 0.00 | 92 | 1015.2 |
| 20260510033649 | 67 | 51 | 1.0 | 3.0 | 0.04 | 0.07 | 0.00 | 92 | 1015.7 |
| 20260510033152 | 67 | 74 | 0.0 | 5.0 | 0.04 | 0.07 | 0.00 | 91 | 1015.8 |
| 20260510032649 | 67 | 17 | 5.0 | 7.0 | 0.04 | 0.07 | 0.00 | 91 | 1015.6 |
| 20260510032149 | 67 | 32 | 5.0 | 6.0 | 0.03 | 0.07 | 0.00 | 91 | 1015.9 |
| 20260510031650 | 67 | 307 | 1.0 | 4.0 | 0.04 | 0.07 | 0.00 | 91 | 1016.5 |
| 20260510031152 | 67 | 79 | 2.0 | 6.0 | 0.04 | 0.07 | 0.00 | 91 | 1015.9 |
| 20260510030649 | 67 | 41 | 3.0 | 5.0 | 0.04 | 0.07 | 0.00 | 90 | 1016.1 |
| 20260510030158 | 67 | 49 | 0.0 | 7.0 | 0.05 | 0.07 | 0.00 | 90 | 1016.0 |
| 20260510025652 | 67 | 51 | 2.0 | 10.0 | 0.06 | 0.07 | 0.00 | 90 | 1015.8 |
| 20260510025152 | 68 | 57 | 4.0 | 8.0 | 0.05 | 0.06 | 0.00 | 89 | 1016.0 |
| 20260510024649 | 68 | 48 | 3.0 | 9.0 | 0.03 | 0.04 | 0.00 | 88 | 1016.7 |
| 20260510024150 | 68 | 12 | 5.0 | 8.0 | 0.03 | 0.03 | 0.00 | 87 | 1017.0 |
| 20260510023652 | 68 | 333 | 4.0 | 6.0 | 0.03 | 0.03 | 0.00 | 86 | 1017.1 |
| 20260510023149 | 68 | 40 | 1.0 | 3.0 | 0.03 | 0.03 | 0.00 | 86 | 1016.4 |
| 20260510022649 | 69 | 40 | 0.0 | 4.0 | 0.03 | 0.03 | 0.00 | 85 | 1015.9 |
| 20260510022149 | 69 | 40 | 4.0 | 7.0 | 0.03 | 0.03 | 0.00 | 84 | 1015.9 |
| 20260510021652 | 69 | 101 | 5.0 | 8.0 | 0.02 | 0.02 | 0.00 | 83 | 1016.0 |
| 20260510021149 | 70 | 98 | 5.0 | 4.0 | 0.02 | 0.02 | 0.00 | 82 | 1016.2 |
| 20260510020652 | 70 | 109 | 2.0 | 3.0 | 0.02 | 0.02 | 0.00 | 81 | 1016.5 |
| 20260510020150 | 70 | 260 | 0.0 | 0.0 | 0.01 | 0.01 | 0.00 | 81 | 1017.0 |
| 20260510015653 | 70 | 260 | 0.0 | 3.0 | 0.00 | 0.00 | 0.00 | 80 | 1017.1 |
| 20260510015150 | 71 | 236 | 2.0 | 5.0 | 0.00 | 0.00 | 0.00 | 78 | 1017.1 |
| 20260510014648 | 71 | 261 | 2.0 | 6.0 | 0.00 | 0.00 | 0.00 | 77 | 1017.2 |
| 20260510014150 | 72 | 283 | 3.0 | 11.0 | 0.00 | 0.00 | 0.00 | 74 | 1017.1 |
| 20260510013647 | 72 | 254 | 5.0 | 9.0 | 0.00 | 0.00 | 0.00 | 72 | 1017.1 |
| 20260510013153 | 73 | 242 | 7.0 | 10.0 | 0.00 | 0.00 | 0.00 | 69 | 1016.8 |
| 20260510012653 | 73 | 241 | 6.0 | 16.0 | 0.00 | 0.00 | 0.00 | 68 | 1016.6 |
| 20260510012150 | 73 | 267 | 3.0 | 9.0 | 0.00 | 0.00 | 0.00 | 66 | 1016.4 |
| 20260510011648 | 73 | 342 | 1.0 | 11.0 | 0.00 | 0.00 | 0.00 | 65 | 1016.3 |
| 20260510011151 | 73 | 259 | 6.0 | 13.0 | 0.00 | 0.00 | 0.00 | 64 | 1016.2 |
| 20260510010654 | 73 | 255 | 3.0 | 11.0 | 0.00 | 0.00 | 0.00 | 59 | 1016.0 |
| 20260510010154 | 73 | 187 | 6.0 | 14.0 | 0.00 | 0.00 | 0.00 | 58 | 1015.8 |
| 20260510005648 | 73 | 205 | 7.0 | 18.0 | 0.00 | 0.00 | 0.00 | 58 | 1015.5 |
| 20260510005148 | 72 | 219 | 9.0 | 18.0 | 0.00 | 0.00 | 0.00 | 58 | 1015.1 |
| 20260510004647 | 73 | 224 | 7.0 | 21.0 | 0.00 | 0.00 | 0.00 | 57 | 1014.9 |
| 20260510004148 | 74 | 223 | 13.0 | 20.0 | 0.00 | 0.00 | 0.00 | 56 | 1014.2 |
| 20260510003648 | 73 | 173 | 14.0 | 25.0 | 0.00 | 0.00 | 0.00 | 58 | 1013.5 |
| 20260510003148 | 71 | 178 | 9.0 | 27.0 | 0.00 | 0.00 | 0.00 | 62 | 1013.6 |
| 20260510002657 | 71 | 190 | 20.0 | 31.0 | 0.00 | 0.00 | 0.00 | 63 | 1013.4 |
| 20260510002151 | 70 | 165 | 33.0 | 33.0 | 0.00 | 0.00 | 0.00 | 65 | 1013.4 |
| 20260510001648 | 70 | 225 | 26.0 | 30.0 | 0.00 | 0.00 | 0.00 | 65 | 1013.7 |
| 20260510001148 | 71 | 197 | 9.0 | 13.0 | 0.00 | 0.00 | 0.00 | 61 | 1012.7 |
| 20260510000651 | 71 | 197 | 6.0 | 13.0 | 0.00 | 0.00 | 0.00 | 62 | 1012.2 |
| 20260510000151 | 70 | 171 | 1.0 | 10.0 | 0.00 | 0.00 | 0.00 | 62 | 1011.8 |
| 20260509235648 | 70 | 121 | 10.0 | 13.0 | 0.00 | 0.00 | 0.00 | 62 | 1011.6 |
| 20260509235148 | 70 | 191 | 5.0 | 19.0 | 0.00 | 0.00 | 0.00 | 63 | 1011.5 |
| 20260509234648 | 70 | 151 | 9.0 | 19.0 | 0.00 | 0.00 | 0.00 | 63 | 1011.4 |
| 20260509234151 | 70 | 196 | 10.0 | 17.0 | 0.00 | 0.00 | 0.00 | 62 | 1011.4 |
| 20260509233651 | 71 | 118 | 3.0 | 15.0 | 0.00 | 0.00 | 0.00 | 61 | 1011.2 |
| 20260509233148 | 71 | 179 | 2.0 | 12.0 | 0.00 | 0.00 | 0.00 | 61 | 1011.3 |
| 20260509232648 | 71 | 131 | 6.0 | 13.0 | 0.00 | 0.00 | 0.00 | 60 | 1011.4 |
| 20260509232151 | 71 | 130 | 1.0 | 16.0 | 0.00 | 0.00 | 0.00 | 60 | 1011.4 |
| 20260509231651 | 71 | 188 | 3.0 | 19.0 | 0.00 | 0.00 | 0.00 | 60 | 1011.6 |
| 20260509231148 | 71 | 183 | 12.0 | 18.0 | 0.00 | 0.00 | 0.00 | 60 | 1011.6 |
| 20260509230651 | 71 | 170 | 8.0 | 12.0 | 0.00 | 0.00 | 0.00 | 60 | 1011.8 |
| 20260509230148 | 71 | 200 | 9.0 | 15.0 | 0.00 | 0.00 | 0.00 | 61 | 1012.0 |
| 20260509225657 | 71 | 205 | 0.0 | 12.0 | 0.00 | 0.00 | 0.00 | 61 | 1012.2 |
| 20260509225148 | 71 | 173 | 5.0 | 15.0 | 0.00 | 0.00 | 0.00 | 62 | 1012.3 |
| 20260509224651 | 71 | 163 | 10.0 | 15.0 | 0.00 | 0.00 | 0.00 | 62 | 1012.4 |
| 20260509224148 | 71 | 165 | 4.0 | 12.0 | 0.00 | 0.00 | 0.00 | 62 | 1012.4 |
| 20260509223648 | 71 | 180 | 5.0 | 9.0 | 0.00 | 0.00 | 0.00 | 62 | 1012.6 |
| 20260509223148 | 71 | 140 | 3.0 | 11.0 | 0.00 | 0.00 | 0.00 | 62 | 1012.6 |
| 20260509222657 | 71 | 123 | 3.0 | 10.0 | 0.00 | 0.00 | 0.00 | 62 | 1012.6 |
| 20260509222148 | 71 | 153 | 1.0 | 10.0 | 0.00 | 0.00 | 0.00 | 62 | 1012.6 |
| 20260509221648 | 71 | 170 | 3.0 | 9.0 | 0.00 | 0.00 | 0.00 | 63 | 1012.6 |
| 20260509221148 | 71 | 100 | 0.0 | 8.0 | 0.00 | 0.00 | 0.00 | 63 | 1012.7 |
| 20260509220648 | 71 | 9 | 2.0 | 12.0 | 0.00 | 0.00 | 0.00 | 63 | 1012.8 |
| 20260509220148 | 71 | 146 | 6.0 | 11.0 | 0.00 | 0.00 | 0.00 | 64 | 1012.8 |
| 20260509215648 | 71 | 182 | 5.0 | 11.0 | 0.00 | 0.00 | 0.00 | 64 | 1012.8 |
| 20260509215157 | 71 | 118 | 1.0 | 16.0 | 0.00 | 0.00 | 0.00 | 64 | 1012.9 |
| 20260509214652 | 70 | 151 | 13.0 | 14.0 | 0.00 | 0.00 | 0.00 | 65 | 1013.0 |
| 20260509214151 | 70 | 148 | 6.0 | 15.0 | 0.00 | 0.00 | 0.00 | 65 | 1013.1 |
| 20260509213648 | 70 | 153 | 8.0 | 13.0 | 0.00 | 0.00 | 0.00 | 66 | 1013.2 |
| 20260509213148 | 71 | 63 | 8.0 | 11.0 | 0.00 | 0.00 | 0.00 | 65 | 1013.3 |
| 20260509212648 | 71 | 144 | 4.0 | 16.0 | 0.00 | 0.00 | 0.00 | 65 | 1013.2 |
| 20260509212151 | 71 | 161 | 3.0 | 16.0 | 0.00 | 0.00 | 0.00 | 65 | 1013.3 |
| 20260509211648 | 71 | 204 | 6.0 | 13.0 | 0.00 | 0.00 | 0.00 | 64 | 1013.3 |
| 20260509211148 | 71 | 154 | 5.0 | 11.0 | 0.00 | 0.00 | 0.00 | 65 | 1013.4 |
| 20260509210648 | 71 | 169 | 0.0 | 9.0 | 0.00 | 0.00 | 0.00 | 67 | 1013.5 |
| 20260509210148 | 70 | 143 | 5.0 | 5.0 | 0.00 | 0.00 | 0.00 | 70 | 1013.5 |
| 20260509205651 | 70 | 128 | 3.0 | 5.0 | 0.00 | 0.00 | 0.00 | 70 | 1013.5 |
| 20260509205148 | 71 | 79 | 3.0 | 5.0 | 0.00 | 0.00 | 0.00 | 70 | 1013.6 |
| 20260509204654 | 71 | 167 | 2.0 | 5.0 | 0.00 | 0.00 | 0.00 | 70 | 1013.7 |
| 20260509204154 | 70 | 207 | 3.0 | 4.0 | 0.00 | 0.00 | 0.00 | 73 | 1013.8 |
| 20260509203653 | 70 | 194 | 0.0 | 4.0 | 0.00 | 0.00 | 0.00 | 74 | 1013.9 |
| 20260509203151 | 70 | 161 | 0.0 | 4.0 | 0.00 | 0.00 | 0.00 | 74 | 1014.0 |
| 20260509202648 | 70 | 159 | 0.0 | 5.0 | 0.00 | 0.00 | 0.00 | 74 | 1014.0 |
| 20260509202148 | 70 | 136 | 0.0 | 5.0 | 0.00 | 0.00 | 0.00 | 74 | 1014.0 |
| 20260509201648 | 70 | 161 | 0.0 | 4.0 | 0.00 | 0.00 | 0.00 | 74 | 1014.1 |
| 20260509201151 | 70 | 118 | 0.0 | 5.0 | 0.00 | 0.00 | 0.00 | 73 | 1014.1 |
| 20260509200648 | 70 | 143 | 0.0 | 6.0 | 0.00 | 0.00 | 0.00 | 72 | 1014.4 |
| 20260509200152 | 70 | 125 | 0.0 | 2.0 | 0.00 | 0.00 | 0.00 | 72 | 1014.7 |
| 20260509195655 | 70 | 125 | 0.0 | 3.0 | 0.00 | 0.00 | 0.00 | 72 | 1014.7 |
| 20260509195148 | 70 | 172 | 0.0 | 3.0 | 0.00 | 0.00 | 0.00 | 72 | 1014.7 |
| 20260509194649 | 70 | 36 | 0.0 | 4.0 | 0.00 | 0.00 | 0.00 | 73 | 1014.8 |
| 20260509194151 | 70 | 155 | 0.0 | 0.0 | 0.00 | 0.00 | 0.00 | 73 | 1014.9 |
| 20260509193654 | 70 | 155 | 0.0 | 3.0 | 0.00 | 0.00 | 0.00 | 73 | 1015.0 |
| 20260509193151 | 70 | 196 | 2.0 | 6.0 | 0.00 | 0.00 | 0.00 | 73 | 1014.9 |
| 20260509192648 | 70 | 177 | 0.0 | 0.0 | 0.00 | 0.00 | 0.00 | 74 | 1014.8 |
| 20260509192148 | 70 | 274 | 0.0 | 0.0 | 0.00 | 0.00 | 0.00 | 75 | 1014.9 |
| 20260509191648 | 70 | 285 | 0.0 | 0.0 | 0.00 | 0.00 | 0.00 | 77 | 1014.8 |
| 20260509191157 | 70 | 286 | 0.0 | 0.0 | 0.00 | 0.00 | 0.00 | 77 | 1014.7 |
| 20260509190651 | 70 | 286 | 0.0 | 0.0 | 0.00 | 0.00 | 0.00 | 77 | 1014.8 |
| 20260509190148 | 70 | 286 | 0.0 | 0.0 | 0.00 | 0.00 | 0.00 | 77 | 1014.9 |
| 20260509185651 | 70 | 286 | 0.0 | 2.0 | 0.00 | 0.00 | 0.00 | 76 | 1014.9 |
| 20260509185149 | 70 | 286 | 0.0 | 2.0 | 0.00 | 0.00 | 0.00 | 76 | 1014.9 |
| 20260509184649 | 70 | 286 | 1.0 | 4.0 | 0.00 | 0.00 | 0.00 | 75 | 1014.9 |
| 20260509184151 | 70 | 281 | 3.0 | 3.0 | 0.00 | 0.00 | 0.00 | 74 | 1014.7 |
| 20260509183648 | 70 | 300 | 1.0 | 2.0 | 0.00 | 0.00 | 0.00 | 74 | 1014.6 |
| 20260509183151 | 70 | 300 | 0.0 | 1.0 | 0.00 | 0.00 | 0.00 | 74 | 1014.5 |
| 20260509182652 | 70 | 240 | 0.0 | 3.0 | 0.00 | 0.00 | 0.00 | 73 | 1014.6 |
| 20260509182151 | 71 | 254 | 0.0 | 4.0 | 0.00 | 0.00 | 0.00 | 73 | 1014.7 |
| 20260509181648 | 71 | 240 | 1.0 | 3.0 | 0.00 | 0.00 | 0.00 | 71 | 1014.6 |
| 20260509181151 | 71 | 310 | 0.0 | 0.0 | 0.00 | 0.00 | 0.00 | 69 | 1014.7 |
| 20260509180654 | 71 | 310 | 0.0 | 0.0 | 0.00 | 0.00 | 0.00 | 69 | 1014.7 |
| 20260509180151 | 71 | 5 | 0.0 | 2.0 | 0.00 | 0.00 | 0.00 | 68 | 1014.7 |
| 20260509175654 | 71 | 9 | 2.0 | 4.0 | 0.00 | 0.00 | 0.00 | 67 | 1014.7 |
| 20260509175151 | 72 | 277 | 0.0 | 1.0 | 0.00 | 0.00 | 0.00 | 66 | 1014.7 |
| 20260509174649 | 72 | 276 | 0.0 | 2.0 | 0.00 | 0.00 | 0.00 | 65 | 1015.0 |
| 20260509174148 | 72 | 9 | 0.0 | 3.0 | 0.00 | 0.00 | 0.00 | 63 | 1015.0 |
| 20260509173651 | 72 | 23 | 1.0 | 4.0 | 0.00 | 0.00 | 0.00 | 61 | 1014.9 |
| 20260509173151 | 72 | 34 | 2.0 | 5.0 | 0.00 | 0.00 | 0.00 | 61 | 1015.0 |
| 20260509172648 | 72 | 301 | 5.0 | 5.0 | 0.00 | 0.00 | 0.00 | 64 | 1015.0 |
| 20260509172149 | 72 | 298 | 2.0 | 4.0 | 0.00 | 0.00 | 0.00 | 64 | 1014.9 |
| 20260509171648 | 71 | 319 | 2.0 | 4.0 | 0.00 | 0.00 | 0.00 | 64 | 1014.9 |
| 20260509171148 | 71 | 23 | 4.0 | 4.0 | 0.00 | 0.00 | 0.00 | 64 | 1014.7 |
| 20260509170648 | 72 | 32 | 1.0 | 6.0 | 0.00 | 0.00 | 0.00 | 64 | 1014.5 |
| 20260509170154 | 72 | 24 | 2.0 | 5.0 | 0.00 | 0.00 | 0.00 | 64 | 1014.5 |
| 20260509165651 | 72 | 5 | 3.0 | 5.0 | 0.00 | 0.00 | 0.00 | 62 | 1014.5 |
| 20260509165151 | 72 | 336 | 3.0 | 7.0 | 0.00 | 0.00 | 0.00 | 62 | 1014.4 |
| 20260509164648 | 72 | 347 | 2.0 | 6.0 | 0.00 | 0.00 | 0.00 | 60 | 1014.5 |
| 20260509164149 | 73 | 28 | 3.0 | 6.0 | 0.00 | 0.00 | 0.00 | 59 | 1014.4 |
| 20260509163648 | 73 | 340 | 3.0 | 5.0 | 0.00 | 0.00 | 0.00 | 59 | 1014.5 |
| 20260509163158 | 73 | 43 | 0.0 | 5.0 | 0.00 | 0.00 | 0.00 | 58 | 1014.5 |
| 20260509162648 | 73 | 26 | 2.0 | 6.0 | 0.00 | 0.00 | 0.00 | 59 | 1014.5 |
| 20260509162148 | 73 | 9 | 2.0 | 6.0 | 0.00 | 0.00 | 0.00 | 58 | 1014.5 |
| 20260509161651 | 73 | 9 | 3.0 | 5.0 | 0.00 | 0.00 | 0.00 | 59 | 1014.5 |
| 20260509161151 | 73 | 20 | 3.0 | 7.0 | 0.00 | 0.00 | 0.00 | 59 | 1014.5 |
| 20260509160648 | 73 | 340 | 5.0 | 7.0 | 0.00 | 0.00 | 0.00 | 59 | 1014.7 |
| 20260509160149 | 73 | 5 | 6.0 | 7.0 | 0.00 | 0.00 | 0.00 | 59 | 1014.7 |
| 20260509155654 | 73 | 13 | 4.0 | 6.0 | 0.00 | 0.00 | 0.00 | 59 | 1014.9 |
| 20260509155151 | 73 | 350 | 5.0 | 8.0 | 0.00 | 0.00 | 0.00 | 59 | 1014.9 |
| 20260509154651 | 73 | 350 | 4.0 | 7.0 | 0.00 | 0.00 | 0.00 | 61 | 1014.9 |
| 20260509154148 | 73 | 22 | 2.0 | 8.0 | 0.00 | 0.00 | 0.00 | 62 | 1014.9 |
| 20260509153648 | 73 | 355 | 4.0 | 7.0 | 0.00 | 0.00 | 0.00 | 61 | 1015.0 |
| 20260509153151 | 73 | 13 | 6.0 | 8.0 | 0.00 | 0.00 | 0.00 | 61 | 1015.2 |
| 20260509152648 | 73 | 337 | 6.0 | 9.0 | 0.00 | 0.00 | 0.00 | 62 | 1015.3 |
| 20260509152148 | 74 | 40 | 5.0 | 8.0 | 0.00 | 0.00 | 0.00 | 62 | 1015.4 |
| 20260509151648 | 73 | 66 | 2.0 | 7.0 | 0.00 | 0.00 | 0.00 | 62 | 1015.4 |
| 20260509151150 | 74 | 28 | 2.0 | 8.0 | 0.00 | 0.00 | 0.00 | 61 | 1015.4 |
| 20260509150649 | 74 | 34 | 4.0 | 8.0 | 0.00 | 0.00 | 0.00 | 59 | 1015.4 |
| 20260509150149 | 75 | 11 | 5.0 | 8.0 | 0.00 | 0.00 | 0.00 | 59 | 1015.4 |
| 20260509145654 | 75 | 326 | 6.0 | 8.0 | 0.00 | 0.00 | 0.00 | 59 | 1015.4 |
| 20260509145148 | 74 | 296 | 8.0 | 8.0 | 0.00 | 0.00 | 0.00 | 61 | 1015.5 |
| 20260509144651 | 74 | 32 | 2.0 | 7.0 | 0.00 | 0.00 | 0.00 | 62 | 1015.5 |
| 20260509144148 | 73 | 60 | 1.0 | 8.0 | 0.00 | 0.00 | 0.00 | 62 | 1015.4 |
| 20260509143649 | 74 | 5 | 3.0 | 8.0 | 0.00 | 0.00 | 0.00 | 62 | 1015.5 |
| 20260509143151 | 74 | 55 | 5.0 | 9.0 | 0.00 | 0.00 | 0.00 | 62 | 1015.4 |
| 20260509142657 | 74 | 5 | 5.0 | 8.0 | 0.00 | 0.00 | 0.00 | 62 | 1015.4 |
| 20260509142148 | 74 | 16 | 3.0 | 6.0 | 0.00 | 0.00 | 0.00 | 62 | 1015.5 |
| 20260509141651 | 74 | 38 | 1.0 | 9.0 | 0.00 | 0.00 | 0.00 | 62 | 1015.6 |
| 20260509141149 | 74 | 15 | 6.0 | 10.0 | 0.00 | 0.00 | 0.00 | 62 | 1015.7 |
| 20260509140651 | 74 | 13 | 3.0 | 7.0 | 0.00 | 0.00 | 0.00 | 60 | 1015.7 |
| 20260509140152 | 74 | 22 | 4.0 | 9.0 | 0.00 | 0.00 | 0.00 | 56 | 1015.8 |
| 20260509135649 | 74 | 355 | 5.0 | 6.0 | 0.00 | 0.00 | 0.00 | 58 | 1015.8 |
| 20260509135148 | 74 | 17 | 4.0 | 8.0 | 0.00 | 0.00 | 0.00 | 58 | 1015.7 |
| 20260509134649 | 74 | 13 | 4.0 | 12.0 | 0.00 | 0.00 | 0.00 | 58 | 1015.7 |
| 20260509134148 | 75 | 20 | 6.0 | 9.0 | 0.00 | 0.00 | 0.00 | 58 | 1015.8 |
| 20260509133649 | 75 | 5 | 4.0 | 7.0 | 0.00 | 0.00 | 0.00 | 58 | 1015.7 |
| 20260509133148 | 75 | 322 | 2.0 | 10.0 | 0.00 | 0.00 | 0.00 | 59 | 1015.7 |
| 20260509132648 | 76 | 36 | 1.0 | 8.0 | 0.00 | 0.00 | 0.00 | 58 | 1015.7 |
| 20260509132148 | 76 | 325 | 6.0 | 8.0 | 0.00 | 0.00 | 0.00 | 59 | 1015.7 |
| 20260509131648 | 76 | 30 | 7.0 | 8.0 | 0.00 | 0.00 | 0.00 | 59 | 1015.6 |
| 20260509131148 | 76 | 346 | 5.0 | 9.0 | 0.00 | 0.00 | 0.00 | 59 | 1015.7 |
| 20260509130648 | 76 | 328 | 2.0 | 7.0 | 0.00 | 0.00 | 0.00 | 59 | 1015.6 |
| 20260509130157 | 75 | 304 | 6.0 | 11.0 | 0.00 | 0.00 | 0.00 | 59 | 1015.6 |
| 20260509125652 | 75 | 29 | 4.0 | 8.0 | 0.00 | 0.00 | 0.00 | 60 | 1015.6 |
| 20260509125148 | 75 | 27 | 3.0 | 8.0 | 0.00 | 0.00 | 0.00 | 60 | 1015.6 |
| 20260509124655 | 75 | 19 | 2.0 | 10.0 | 0.00 | 0.00 | 0.00 | 58 | 1015.5 |
| 20260509124149 | 75 | 325 | 3.0 | 11.0 | 0.00 | 0.00 | 0.00 | 59 | 1015.5 |
| 20260509123649 | 75 | 340 | 4.0 | 10.0 | 0.00 | 0.00 | 0.00 | 59 | 1015.5 |